GW6983 Weather Reports


time (UTC)temp
C
wind
direction
speed
KPH
gust
KPH
rain 1hr
cm
rain 24hr
cm
rain mn
cm
humidity
%
barometer
mb
20260506222015 20 146 1.6 8.0 0.00 0.00 0.00 64 1019.4
20260506221517 20 351 3.2 4.8 0.00 0.00 0.00 65 1019.5
20260506221011 20 42 3.2 4.8 0.00 0.00 0.00 65 1019.5
20260506220509 20 30 1.6 4.8 0.00 0.00 0.00 64 1019.5
20260506220024 20 19 3.2 6.4 0.00 0.00 0.00 64 1019.6
20260506215509 20 85 1.6 6.4 0.00 0.00 0.00 64 1019.6
20260506215009 20 352 1.6 6.4 0.00 0.00 0.00 65 1019.6
20260506214525 20 32 3.2 6.4 0.00 0.00 0.00 64 1019.7
20260506214010 20 32 1.6 6.4 0.00 0.00 0.00 64 1019.7
20260506213502 20 46 1.6 6.4 0.00 0.00 0.00 63 1019.8
20260506213018 20 55 1.6 6.4 0.00 0.00 0.00 63 1019.7
20260506212510 20 9 3.2 6.4 0.00 0.00 0.00 63 1019.7
20260506212006 20 25 1.6 6.4 0.00 0.00 0.00 63 1019.8
20260506211517 20 28 1.6 6.4 0.00 0.00 0.00 63 1019.7
20260506211009 20 19 1.6 4.8 0.00 0.00 0.00 62 1019.7
20260506210512 20 82 0.0 8.0 0.00 0.00 0.00 62 1019.6
20260506210023 20 344 1.6 8.0 0.00 0.00 0.00 62 1019.7
20260506205511 20 360 3.2 6.4 0.00 0.00 0.00 61 1019.7
20260506205010 20 73 1.6 4.8 0.00 0.00 0.00 62 1019.7
20260506204523 20 346 1.6 4.8 0.00 0.00 0.00 61 1019.8
20260506204014 21 252 0.0 4.8 0.00 0.00 0.00 61 1019.8
20260506203516 20 9 1.6 4.8 0.00 0.00 0.00 60 1019.9
20260506203033 20 311 1.6 4.8 0.00 0.00 0.00 61 1019.9
20260506202506 20 146 1.6 4.8 0.00 0.00 0.00 62 1020.0
20260506202007 20 344 0.0 4.8 0.00 0.00 0.00 62 1020.1
20260506201516 20 334 1.6 4.8 0.00 0.00 0.00 63 1020.1
20260506201007 20 32 1.6 4.8 0.00 0.00 0.00 62 1020.3
20260506200507 20 360 1.6 3.2 0.00 0.00 0.00 62 1020.3
20260506200025 20 23 0.0 3.2 0.00 0.00 0.00 63 1020.3
20260506195509 19 310 0.0 4.8 0.00 0.00 0.00 64 1020.4
20260506195010 19 343 1.6 4.8 0.00 0.00 0.00 63 1020.4
20260506194522 19 34 1.6 4.8 0.00 0.00 0.00 63 1020.4
20260506194009 19 290 1.6 4.8 0.00 0.00 0.00 63 1020.5
20260506193512 18 13 1.6 3.2 0.00 0.00 0.00 64 1020.5
20260506193024 18 181 0.0 4.8 0.00 0.00 0.00 66 1020.6
20260506192509 18 334 1.6 4.8 0.00 0.00 0.00 65 1020.7
20260506192014 18 18 1.6 4.8 0.00 0.00 0.00 65 1020.7
20260506191529 18 39 1.6 4.8 0.00 0.00 0.00 68 1020.9
20260506191007 18 182 1.6 4.8 0.00 0.00 0.00 67 1020.9
20260506190507 18 360 1.6 3.2 0.00 0.00 0.00 67 1021.0
20260506190017 18 10 0.0 3.2 0.00 0.00 0.00 66 1021.0
20260506185508 18 148 1.6 6.4 0.00 0.00 0.00 66 1020.9
20260506185009 18 42 1.6 6.4 0.00 0.00 0.00 66 1020.9
20260506184522 18 161 1.6 4.8 0.00 0.00 0.00 64 1020.9
20260506184006 18 9 1.6 6.4 0.00 0.00 0.00 63 1020.9
20260506183510 19 318 1.6 6.4 0.00 0.00 0.00 64 1020.9
20260506183025 19 11 0.0 4.8 0.00 0.00 0.00 64 1020.9
20260506182508 18 170 1.6 4.8 0.00 0.00 0.00 64 1020.9
20260506182015 18 166 1.6 4.8 0.00 0.00 0.00 65 1020.9
20260506181526 18 333 1.6 4.8 0.00 0.00 0.00 64 1020.9
20260506181007 18 163 1.6 6.4 0.00 0.00 0.00 65 1020.8
20260506180510 18 148 0.0 6.4 0.00 0.00 0.00 66 1020.8
20260506180014 18 30 1.6 6.4 0.00 0.00 0.00 66 1020.8
20260506175511 18 15 0.0 4.8 0.00 0.00 0.00 67 1020.7
20260506175008 18 9 1.6 4.8 0.00 0.00 0.00 66 1020.8
20260506174519 18 333 0.0 3.2 0.00 0.00 0.00 66 1020.7
20260506174010 17 323 0.0 4.8 0.00 0.00 0.00 67 1020.7
20260506173510 17 351 1.6 4.8 0.00 0.00 0.00 68 1020.7
20260506173032 17 156 1.6 4.8 0.00 0.00 0.00 68 1020.8
20260506172510 17 309 1.6 4.8 0.00 0.00 0.00 68 1020.8
20260506172010 17 22 0.0 4.8 0.00 0.00 0.00 69 1020.9
20260506171525 17 5 1.6 4.8 0.00 0.00 0.00 69 1020.9
20260506171010 17 27 0.0 3.2 0.00 0.00 0.00 69 1020.9
20260506170513 17 342 0.0 4.8 0.00 0.00 0.00 69 1020.9
20260506170027 17 84 0.0 6.4 0.00 0.00 0.00 69 1020.9
20260506165510 17 160 1.6 6.4 0.00 0.00 0.00 69 1020.9
20260506165006 16 185 0.0 3.2 0.00 0.00 0.00 72 1020.8
20260506164516 16 175 0.0 3.2 0.00 0.00 0.00 73 1020.8
20260506164009 15 22 0.0 3.2 0.00 0.00 0.00 74 1020.9
20260506163507 15 157 0.0 3.2 0.00 0.00 0.00 74 1020.9
20260506163038 15 155 0.0 3.2 0.00 0.00 0.00 74 1020.8
20260506162506 15 169 0.0 3.2 0.00 0.00 0.00 75 1020.8
20260506162014 15 348 0.0 3.2 0.00 0.00 0.00 75 1020.8
20260506161528 15 323 0.0 3.2 0.00 0.00 0.00 74 1020.9
20260506161007 15 279 0.0 3.2 0.00 0.00 0.00 74 1020.8
20260506160509 15 163 0.0 3.2 0.00 0.00 0.00 75 1020.8
20260506160028 15 164 0.0 3.2 0.00 0.00 0.00 75 1020.8
20260506155511 15 109 0.0 3.2 0.00 0.00 0.00 75 1020.8
20260506155011 15 65 0.0 3.2 0.00 0.00 0.00 76 1020.9
20260506154537 15 47 0.0 3.2 0.00 0.00 0.00 76 1020.9
20260506154010 14 59 0.0 3.2 0.00 0.00 0.00 76 1020.9
20260506153512 14 49 0.0 3.2 0.00 0.00 0.00 76 1020.9
20260506153018 15 63 0.0 3.2 0.00 0.00 0.00 75 1020.8
20260506152510 15 61 0.0 3.2 0.00 0.00 0.00 75 1020.8
20260506152014 15 49 0.0 3.2 0.00 0.00 0.00 75 1020.8
20260506151524 15 62 0.0 3.2 0.00 0.00 0.00 76 1020.8
20260506151008 15 62 0.0 3.2 0.00 0.00 0.00 75 1020.8
20260506150513 15 64 0.0 3.2 0.00 0.00 0.00 75 1020.8
20260506150024 15 59 0.0 3.2 0.00 0.00 0.00 75 1020.8
20260506145512 15 64 0.0 1.6 0.00 0.00 0.00 75 1020.7
20260506145011 15 26 0.0 0.0 0.00 0.00 0.00 76 1020.7
20260506144526 14 9 0.0 0.0 0.00 0.00 0.00 78 1020.7
20260506144009 14 17 0.0 0.0 0.00 0.00 0.00 79 1020.6
20260506143510 13 11 0.0 0.0 0.00 0.00 0.00 80 1020.6
20260506143028 13 9 0.0 3.2 0.00 0.00 0.00 81 1020.6
20260506142508 13 9 0.0 3.2 0.00 0.00 0.00 82 1020.6
20260506142010 12 10 0.0 0.0 0.00 0.00 0.00 83 1020.6
20260506141522 12 17 0.0 0.0 0.00 0.00 0.00 84 1020.5
20260506141016 12 17 0.0 0.0 0.00 0.00 0.00 84 1020.4
20260506140511 12 17 0.0 0.0 0.00 0.00 0.00 84 1020.4
20260506140029 12 17 0.0 0.0 0.00 0.00 0.00 84 1020.3
20260506135513 12 17 0.0 0.0 0.00 0.00 0.00 85 1020.3
20260506135014 12 17 0.0 0.0 0.00 0.00 0.00 85 1020.2
20260506134528 12 17 0.0 0.0 0.00 0.00 0.00 84 1020.2
20260506134011 12 17 0.0 0.0 0.00 0.00 0.00 84 1020.1
20260506133508 12 17 0.0 0.0 0.00 0.00 0.00 83 1020.1
20260506133029 12 17 0.0 0.0 0.00 0.00 0.00 83 1020.1
20260506132513 12 17 0.0 0.0 0.00 0.00 0.00 83 1020.2
20260506132011 12 17 0.0 0.0 0.00 0.00 0.00 83 1020.2
20260506131520 12 17 0.0 0.0 0.00 0.00 0.00 82 1020.1
20260506131013 12 17 0.0 0.0 0.00 0.00 0.00 82 1020.1
20260506130510 12 17 0.0 0.0 0.00 0.00 0.00 82 1020.0
20260506130007 12 17 0.0 0.0 0.00 0.00 0.00 82 1020.0
20260506125503 12 17 0.0 0.0 0.00 0.00 0.00 81 1020.0
20260506125004 12 17 0.0 0.0 0.00 0.00 0.00 82 1020.0
20260506124508 12 17 0.0 0.0 0.00 0.00 0.00 82 1020.0
20260506124009 12 17 0.0 0.0 0.00 0.00 0.00 82 1019.9
20260506123505 12 17 0.0 0.0 0.00 0.00 0.00 81 1019.9
20260506123012 12 17 0.0 0.0 0.00 0.00 0.00 81 1019.9
20260506122506 12 17 0.0 0.0 0.00 0.00 0.00 82 1019.9
20260506122008 12 17 0.0 0.0 0.00 0.00 0.00 81 1019.9
20260506121516 12 17 0.0 0.0 0.00 0.00 0.00 82 1019.9
20260506121006 12 17 0.0 0.0 0.00 0.00 0.00 81 1019.8
20260506120508 12 17 0.0 0.0 0.00 0.00 0.00 81 1019.8
20260506120021 13 17 0.0 0.0 0.00 0.00 0.00 80 1019.8
20260506115513 12 17 0.0 0.0 0.00 0.00 0.00 80 1019.8
20260506115008 12 17 0.0 0.0 0.00 0.00 0.00 81 1019.8
20260506114505 13 17 0.0 0.0 0.00 0.00 0.00 80 1019.7
20260506114005 13 17 0.0 0.0 0.00 0.00 0.00 81 1019.8
20260506113504 13 17 0.0 0.0 0.00 0.00 0.00 80 1019.7
20260506113012 13 17 0.0 0.0 0.00 0.00 0.00 80 1019.7
20260506112504 13 17 0.0 0.0 0.00 0.00 0.00 80 1019.6
20260506112006 13 17 0.0 0.0 0.00 0.00 0.00 80 1019.6
20260506111525 13 18 0.0 0.0 0.00 0.00 0.00 80 1019.5
20260506111007 12 13 0.0 0.0 0.00 0.00 0.00 80 1019.5
20260506110507 12 13 0.0 0.0 0.00 0.00 0.00 80 1019.4
20260506110021 12 16 0.0 0.0 0.00 0.00 0.00 80 1019.4
20260506105508 12 14 0.0 0.0 0.00 0.00 0.00 80 1019.4
20260506105013 12 14 0.0 0.0 0.00 0.00 0.00 80 1019.3
20260506104523 12 14 0.0 0.0 0.00 0.00 0.00 80 1019.4
20260506104012 12 360 0.0 0.0 0.00 0.00 0.00 80 1019.3
20260506103504 12 360 0.0 0.0 0.00 0.00 0.00 80 1019.3
20260506103008 12 360 0.0 0.0 0.00 0.00 0.00 80 1019.3
20260506102507 12 360 0.0 0.0 0.00 0.00 0.00 80 1019.2
20260506102005 12 360 0.0 0.0 0.00 0.00 0.00 79 1019.2
20260506101512 12 352 0.0 0.0 0.00 0.00 0.00 81 1019.0
20260506101008 12 351 0.0 0.0 0.00 0.00 0.00 80 1019.1
20260506100507 12 350 0.0 0.0 0.00 0.00 0.00 80 1019.1
20260506100017 12 9 0.0 0.0 0.00 0.00 0.00 81 1019.1
20260506095507 12 9 0.0 0.0 0.00 0.00 0.00 81 1019.2
20260506095015 12 352 0.0 0.0 0.00 0.03 0.00 81 1019.2
20260506094522 12 352 0.0 0.0 0.00 0.03 0.00 82 1019.2
20260506094011 12 352 0.0 0.0 0.00 0.03 0.00 83 1019.2
20260506093516 12 352 0.0 0.0 0.00 0.03 0.00 83 1019.2
20260506093026 12 352 0.0 0.0 0.00 0.03 0.00 83 1019.2
20260506092509 12 352 0.0 0.0 0.00 0.03 0.00 84 1019.2
20260506092006 12 352 0.0 0.0 0.00 0.03 0.00 83 1019.1
20260506091509 12 352 0.0 0.0 0.00 0.03 0.00 83 1019.2
20260506091010 12 352 0.0 0.0 0.00 0.03 0.00 82 1019.2
20260506090504 12 352 0.0 0.0 0.00 0.03 0.00 82 1019.1
20260506090027 12 352 0.0 0.0 0.00 0.03 0.00 82 1019.1
20260506085507 12 352 0.0 0.0 0.00 0.05 0.00 81 1019.1
20260506085008 12 352 0.0 1.6 0.00 0.05 0.00 81 1019.2
20260506084533 12 352 0.0 1.6 0.00 0.05 0.00 81 1019.2
20260506084007 12 352 0.0 3.2 0.00 0.05 0.00 80 1019.2
20260506083509 12 18 0.0 3.2 0.00 0.05 0.00 80 1019.2
20260506083030 13 18 0.0 0.0 0.00 0.05 0.00 81 1019.2
20260506082507 13 18 0.0 0.0 0.00 0.05 0.00 81 1019.3
20260506082009 13 18 0.0 0.0 0.00 0.05 0.00 81 1019.3
20260506081528 13 18 0.0 0.0 0.00 0.05 0.00 81 1019.3
20260506081009 13 18 0.0 1.6 0.00 0.08 0.00 81 1019.3
20260506080507 13 18 0.0 1.6 0.00 0.10 0.00 80 1019.3
20260506073511 13 341 0.0 3.2 0.00 0.18 0.00 79 1019.1
20260506073022 13 341 0.0 3.2 0.00 0.20 0.00 78 1019.1
20260506072509 13 341 0.0 3.2 0.00 0.23 0.00 78 1019.1
20260506072016 13 51 0.0 3.2 0.00 0.23 0.00 78 1019.1
20260506071526 13 74 0.0 3.2 0.00 0.23 0.00 79 1019.0
20260506071009 13 76 0.0 3.2 0.00 0.25 0.00 79 1019.0
20260506070504 13 63 0.0 1.6 0.00 0.25 0.00 79 1019.0
20260506062511 12 58 0.0 3.2 0.00 0.28 0.25 82 1018.7
20260506062012 12 343 0.0 3.2 0.00 0.30 0.25 82 1018.8
20260506061524 13 343 0.0 3.2 0.00 0.30 0.25 82 1018.7
20260506061004 13 341 0.0 0.0 0.00 0.30 0.25 83 1018.6
20260506060503 13 341 0.0 0.0 0.00 0.30 0.25 83 1018.7
20260506051010 13 129 0.0 3.2 0.00 0.38 0.25 84 1018.4
20260506050510 13 31 0.0 3.2 0.00 0.41 0.25 84 1018.4
20260506045004 13 116 0.0 3.2 0.00 0.43 0.25 84 1018.2
20260506044515 13 32 0.0 4.8 0.00 0.43 0.25 84 1018.2
20260506044005 13 72 0.0 4.8 0.00 0.46 0.25 84 1018.1
20260506043506 13 116 0.0 3.2 0.00 0.48 0.25 84 1018.1
20260506043017 13 116 0.0 3.2 0.00 0.48 0.25 84 1018.0
20260506042508 13 115 0.0 3.2 0.00 0.48 0.25 83 1018.0
20260506042008 13 136 0.0 3.2 0.00 0.48 0.25 83 1017.9
20260506041531 13 31 0.0 3.2 0.00 0.48 0.25 83 1017.9
20260506041008 13 41 0.0 3.2 0.00 0.48 0.25 82 1017.8
20260506040512 13 352 0.0 3.2 0.00 0.48 0.25 82 1017.7
20260506040022 13 9 0.0 3.2 0.00 0.48 0.25 82 1017.7
20260506035511 13 66 0.0 3.2 0.00 0.48 0.25 81 1017.6
20260506035009 13 40 0.0 3.2 0.00 0.48 0.25 81 1017.5
20260506034510 13 56 0.0 3.2 0.00 0.48 0.25 80 1017.3
20260506034006 13 30 0.0 3.2 0.00 0.48 0.25 80 1017.3
20260506033504 13 30 0.0 3.2 0.00 0.48 0.25 80 1017.2
20260506033012 13 46 0.0 3.2 0.00 0.48 0.25 79 1017.1
20260506032507 13 88 0.0 3.2 0.00 0.48 0.25 79 1017.1
20260506032008 13 352 0.0 3.2 0.00 0.48 0.25 79 1017.0
20260506031520 13 56 0.0 3.2 0.00 0.48 0.25 78 1016.8
20260506031009 13 238 0.0 3.2 0.00 0.48 0.25 78 1017.0
20260506030514 13 360 0.0 4.8 0.00 0.48 0.25 78 1016.8
20260506030020 14 51 1.6 4.8 0.00 0.48 0.25 77 1016.8
20260506025516 14 148 1.6 4.8 0.00 0.48 0.25 77 1016.7
20260506025010 14 67 0.0 3.2 0.00 0.48 0.25 77 1016.8
20260506024529 14 63 0.0 4.8 0.00 0.48 0.25 77 1016.8
20260506024014 14 24 1.6 4.8 0.00 0.48 0.25 76 1016.8
20260506023507 15 28 0.0 4.8 0.00 0.48 0.25 75 1016.8
20260506023012 15 101 0.0 4.8 0.00 0.48 0.25 75 1016.7
20260506022508 15 21 1.6 4.8 0.00 0.48 0.25 75 1016.7
20260506022004 15 100 1.6 4.8 0.00 0.48 0.25 75 1016.6
20260506021517 15 12 1.6 4.8 0.00 0.48 0.25 74 1016.6
20260506021010 15 139 1.6 4.8 0.00 0.48 0.25 74 1016.5
20260506020511 15 114 0.0 3.2 0.00 0.48 0.25 74 1016.5
20260506020021 15 121 0.0 4.8 0.00 0.48 0.25 73 1016.4
20260506015507 15 54 0.0 4.8 0.00 0.48 0.25 72 1016.4
20260506015009 15 32 0.0 4.8 0.00 0.48 0.25 72 1016.5
20260506014523 15 44 1.6 8.0 0.00 0.48 0.25 73 1016.4
20260506014010 15 98 1.6 8.0 0.00 0.48 0.25 71 1016.4
20260506013511 15 157 1.6 4.8 0.00 0.48 0.25 71 1016.3
20260506013038 15 63 1.6 8.0 0.00 0.48 0.25 71 1016.3
20260506012510 15 44 1.6 8.0 0.00 0.48 0.25 71 1016.4
20260506012010 15 332 1.6 9.7 0.00 0.48 0.25 70 1016.4
20260506011522 15 144 1.6 9.7 0.00 0.48 0.25 70 1016.5
20260506011008 15 150 1.6 4.8 0.00 0.48 0.25 69 1016.4
20260506010506 16 104 1.6 3.2 0.00 0.48 0.25 69 1016.4
20260506010022 16 352 0.0 8.0 0.00 0.48 0.25 70 1016.4
20260506005507 16 41 1.6 8.0 0.00 0.48 0.25 70 1016.3
20260506005010 16 19 1.6 4.8 0.00 0.48 0.25 69 1016.4
20260506004523 16 111 1.6 4.8 0.00 0.48 0.25 69 1016.3
20260506004012 16 335 1.6 4.8 0.00 0.48 0.25 69 1016.3
20260506003512 16 134 0.0 6.4 0.00 0.48 0.25 70 1016.2
20260506003027 16 35 1.6 4.8 0.00 0.48 0.25 70 1016.2
20260506002510 16 128 1.6 4.8 0.00 0.48 0.25 71 1016.2
20260506002013 16 157 1.6 4.8 0.00 0.48 0.25 72 1016.1
20260506001525 15 140 1.6 6.4 0.00 0.48 0.25 71 1016.1
20260506001007 15 46 1.6 6.4 0.00 0.48 0.25 73 1016.1
20260506000506 15 20 1.6 8.0 0.00 0.48 0.25 73 1016.1
20260506000017 15 9 3.2 8.0 0.00 0.48 0.25 73 1016.1
20260505235506 15 85 0.0 4.8 0.00 0.48 0.25 74 1016.1
20260505235012 15 13 1.6 4.8 0.00 0.48 0.25 74 1016.1
20260505234522 15 61 1.6 9.7 0.00 0.48 0.25 75 1016.1
20260505234008 15 32 1.6 9.7 0.00 0.48 0.25 75 1016.2
20260505233511 15 101 1.6 4.8 0.00 0.48 0.25 74 1016.2
20260505233027 15 9 1.6 4.8 0.00 0.48 0.25 74 1016.2
20260505232514 15 117 0.0 4.8 0.00 0.48 0.25 75 1016.2
20260505232011 15 85 1.6 4.8 0.00 0.48 0.25 75 1016.2
20260505231529 15 26 0.0 6.4 0.00 0.48 0.25 74 1016.2
20260505231010 15 63 1.6 6.4 0.00 0.48 0.25 74 1016.1
20260505230509 15 22 1.6 4.8 0.00 0.48 0.25 74 1016.1
20260505230014 16 9 1.6 4.8 0.00 0.48 0.25 74 1016.0
20260505225509 16 154 0.0 4.8 0.00 0.48 0.25 75 1016.0
20260505225008 16 28 1.6 6.4 0.00 0.48 0.25 74 1016.1
20260505224518 16 68 1.6 6.4 0.00 0.48 0.25 74 1016.1
20260505224007 16 9 1.6 6.4 0.00 0.48 0.25 74 1016.1
20260505223510 16 360 1.6 6.4 0.00 0.48 0.25 74 1016.0
20260505223035 16 22 1.6 6.4 0.00 0.48 0.25 73 1016.1
20260505222515 17 13 1.6 6.4 0.00 0.48 0.25 73 1016.0